TimeEST,TemperatureF,Dew PointF,Humidity,Sea Level PressureIn,VisibilityMPH,Wind Direction,Wind SpeedMPH,Gust SpeedMPH,PrecipitationIn,Events,Conditions,WindDirDegrees,DateUTC
12:54 AM,55.9,48.9,77,30.15,10.0,SSE,8.1,-,N/A,,Overcast,160,2011-11-27 05:54:00
1:54 AM,57.0,48.9,74,30.14,10.0,SSE,8.1,19.6,N/A,,Overcast,160,2011-11-27 06:54:00
2:54 AM,55.9,50.0,80,30.13,10.0,SSE,6.9,-,N/A,,Overcast,160,2011-11-27 07:54:00
3:54 AM,55.9,50.0,80,30.12,10.0,SSE,8.1,-,N/A,,Overcast,160,2011-11-27 08:54:00
4:54 AM,55.9,48.9,77,30.11,10.0,South,10.4,-,N/A,,Overcast,180,2011-11-27 09:54:00
5:54 AM,55.4,48.2,77,30.14,10.0,South,10.4,-,N/A,,Overcast,170,2011-11-27 10:54:00
6:25 AM,55.4,48.2,77,30.14,10.0,South,8.1,-,N/A,,Overcast,170,2011-11-27 11:25:00
6:54 AM,55.9,48.9,77,30.12,10.0,SSE,6.9,-,N/A,,Overcast,150,2011-11-27 11:54:00
7:54 AM,57.0,50.0,77,30.11,10.0,SSE,9.2,-,N/A,,Overcast,160,2011-11-27 12:54:00
8:54 AM,57.9,50.0,75,30.11,10.0,South,12.7,23.0,N/A,,Overcast,170,2011-11-27 13:54:00
9:07 AM,57.2,50.0,77,30.15,10.0,SSE,12.7,-,N/A,,Overcast,160,2011-11-27 14:07:00
9:54 AM,60.8,48.2,63,30.15,10.0,South,12.7,23.0,N/A,,Overcast,170,2011-11-27 14:54:00
10:54 AM,60.1,48.9,67,30.11,10.0,SSE,12.7,20.7,N/A,,Overcast,160,2011-11-27 15:54:00
11:54 AM,62.1,48.9,62,30.08,10.0,SSE,15.0,23.0,N/A,,Overcast,160,2011-11-27 16:54:00
12:54 PM,61.0,48.9,64,30.05,10.0,SSE,12.7,19.6,N/A,,Overcast,160,2011-11-27 17:54:00
1:54 PM,62.6,48.2,59,30.05,10.0,South,19.6,24.2,N/A,,Overcast,170,2011-11-27 18:54:00
2:54 PM,62.1,50.0,65,30.00,10.0,SSE,12.7,23.0,N/A,,Overcast,150,2011-11-27 19:54:00
3:54 PM,61.0,51.1,70,30.00,10.0,SE,13.8,21.9,N/A,,Mostly Cloudy,140,2011-11-27 20:54:00
4:54 PM,61.0,51.1,70,30.01,10.0,SSE,10.4,-,N/A,,Overcast,150,2011-11-27 21:54:00
5:54 PM,60.1,51.1,72,29.99,10.0,SSE,8.1,-,N/A,,Overcast,150,2011-11-27 22:54:00
6:54 PM,60.1,50.0,69,29.98,10.0,SE,11.5,21.9,N/A,,Overcast,140,2011-11-27 23:54:00
7:43 PM,60.8,50.0,68,30.02,10.0,SSE,6.9,-,N/A,,Overcast,150,2011-11-28 00:43:00
7:54 PM,60.1,50.0,69,29.98,10.0,SE,9.2,-,N/A,,Overcast,140,2011-11-28 00:54:00
8:10 PM,60.8,51.8,72,30.01,10.0,SE,9.2,-,N/A,,Overcast,140,2011-11-28 01:10:00
8:54 PM,59.0,52.0,78,29.96,10.0,SSE,10.4,18.4,0.00,Rain,Light Rain,150,2011-11-28 01:54:00
9:13 PM,60.8,53.6,77,30.00,10.0,SE,10.4,23.0,0.00,Rain,Light Rain,140,2011-11-28 02:13:00
9:29 PM,60.8,53.6,77,30.01,10.0,SSE,11.5,21.9,0.00,Rain,Light Rain,150,2011-11-28 02:29:00
9:54 PM,60.1,53.1,78,29.97,10.0,SSE,17.3,26.5,0.00,,Overcast,150,2011-11-28 02:54:00
10:16 PM,60.8,53.6,77,30.01,10.0,SSE,13.8,27.6,N/A,,Overcast,150,2011-11-28 03:16:00
10:52 PM,60.8,53.6,77,30.00,10.0,SSE,12.7,23.0,N/A,,Overcast,150,2011-11-28 03:52:00
10:54 PM,60.1,53.1,78,29.96,10.0,SSE,15.0,24.2,N/A,,Overcast,160,2011-11-28 03:54:00
11:08 PM,60.8,53.6,77,29.99,10.0,SSE,11.5,20.7,0.00,,Overcast,150,2011-11-28 04:08:00
11:54 PM,59.0,53.1,81,29.94,10.0,SSE,11.5,-,0.00,,Overcast,150,2011-11-28 04:54:00